Skip Page Navigation
NASA JPL Caltech
NASA Logo - Jet Propulsion Laboratory + View the NASA Portal
+ Center for Near-Earth Object Studies
JPL Home Earth Solar System Stars & Galaxies Technology
JPL Solar System Dynamics
BODIES ORBITS EPHEMERIDES TOOLS PHYSICAL DATA DISCOVERY FAQ SITE MAP
JPL Small-Body Database Browser
Search: [ help ]  
3063 Makhaon (1983 PV)
Classification: Jupiter Trojan          SPK-ID: 2003063
Ephemeris | Orbit Diagram | Orbital Elements | Mission Design | Physical Parameters | Discovery Circumstances ]

[ show orbit diagram ]
Orbital Elements at Epoch 2459200.5 (2020-Dec-17.0) TDB
Reference: JPL 40 (heliocentric ecliptic J2000)
 Element Value Uncertainty (1-sigma)   Units 
e .0583213175390298 4.8116e-08  
a 5.21466003224121 7.8963e-08 au
q 4.910534188642783 2.8334e-07 au
i 12.16140049231054 4.3243e-06 deg
node 287.8678861899259 2.4747e-05 deg
peri 204.463754148953 4.9375e-05 deg
M 252.0337475728948 4.5538e-05 deg
tp 2460504.936532038914
(2024-Jul-13.43653204)
0.00056513 TDB
period 4349.480888493959
11.91
9.8793e-05
2.705e-07
d
yr
n .08276849794933866 1.88e-09 deg/d
Q 5.518785875839637 8.3569e-08 au
  Orbit Determination Parameters
   # obs. used (total)      2466  
   data-arc span      32845 days (89.92 yr)  
   first obs. used      1931-02-18  
   last obs. used      2021-01-21  
   planetary ephem.      DE431  
   SB-pert. ephem.      SB431-N16  
   condition code      0  
   norm. resid. RMS      .38833  
   source      ORB  
   producer      Otto Matic  
   solution date      2021-Feb-24 01:07:42  

Additional Information
 Earth MOID = 3.92952 au 
 Jupiter MOID = .265777 au 
 T_jup = 2.952 
[ show covariance matrix ]

Ephemeris | Orbit Diagram | Orbital Elements | Mission Design | Physical Parameters | Discovery Circumstances ]

Physical Parameter Table
Parameter Symbol Value Units Sigma Reference Notes
absolute magnitude H 8.69   n/a E2020-QM5  
diameter diameter 111.655 km 1.544 urn:nasa:pds:neowise_diameters_albedos::2.0[jupiter_trojans] (http://adsabs.harvard.edu/abs/2012ApJ...759...49G)  
rotation period rot_per 8.64 h n/a LCDB (Rev. 2020-October); Warner et al., 2009 Result based on less than full coverage, so that the period may be wrong by 30 percent or so.
Published Reference List:
[French, L.M.; Stephens, R.D.; Lederer, S.M.; Coley, D.R.; Rohl, D.A. (2011) Minor Planet Bull. 38, 116-120.]
[Mottola, S.; Di Martino, M.; Erikson, A.; Gonano-Beurer, M.; et al. (2011) Astron. J. 141, A170.]
[Alkema, M.S. (2013) Minor Planet Bull. 40, 133-137.]
[Stephens, R.D.; Coley, D.R.; Warner, B.D.; French, L.M. (2016) Minor Planet Bull. 43, 323-331.]
geometric albedo albedo 0.056   0.005 urn:nasa:pds:neowise_diameters_albedos::2.0[jupiter_trojans] (http://adsabs.harvard.edu/abs/2012ApJ...759...49G)  

3063 Makhaon (1983 PV)          Discovered 1983-Aug-04 by Karachkina, L. G. at Nauchnyj
Reference: DISCOVERY.DBLast Updated: 2003-08-29

Alternate Designations
 1983 PV = 1931 DT = 1964 YL = 1971 OE = 1971 QK1 = 1975 VT6 
Ephemeris | Orbit Diagram | Orbital Elements | Mission Design | Physical Parameters | Discovery Circumstances ]
ABOUT SSD CREDITS/AWARDS PRIVACY/COPYRIGHT GLOSSARY LINKS
FirstGov 2021-Mar-02 05:40 UT
(server date/time)  
NASA Home Page
Site Manager:   Ryan S. Park
Webmaster  Alan B. Chamberlin